Radiation Dose measured at Intake/Vertical shaft monitor
Date,Time,Intake(cps),Vertical shaft(cps),Rain
2023/10/16,00:00,7.3,5.1,No
2023/10/16,00:10,7.4,4.9,No
2023/10/16,00:20,7.4,5.0,No
2023/10/16,00:30,7.2,4.8,No
2023/10/16,00:40,7.2,5.0,No
2023/10/16,00:50,7.3,5.0,No
2023/10/16,01:00,7.2,4.9,No
2023/10/16,01:10,7.1,5.0,No
2023/10/16,01:20,7.1,5.0,No
2023/10/16,01:30,7.3,5.1,No
2023/10/16,01:40,7.1,5.0,No
2023/10/16,01:50,7.1,4.9,No
2023/10/16,02:00,7.1,4.9,No
2023/10/16,02:10,7.2,4.9,No
2023/10/16,02:20,7.0,4.9,No
2023/10/16,02:30,7.1,4.9,No
2023/10/16,02:40,7.2,4.8,No
2023/10/16,02:50,7.2,5.1,No
2023/10/16,03:00,7.2,5.0,No
2023/10/16,03:10,7.3,5.0,No
2023/10/16,03:20,7.1,5.0,No
2023/10/16,03:30,7.1,5.1,No
2023/10/16,03:40,7.1,5.0,No
2023/10/16,03:50,7.1,5.1,No
2023/10/16,04:00,7.0,5.0,No
2023/10/16,04:10,7.1,5.0,No
2023/10/16,04:20,7.1,5.0,No
2023/10/16,04:30,7.0,5.1,No
2023/10/16,04:40,7.0,5.0,No
2023/10/16,04:50,7.3,4.9,No
2023/10/16,05:00,7.1,5.0,No
2023/10/16,05:10,7.2,4.8,No
2023/10/16,05:20,7.0,4.9,No
2023/10/16,05:30,7.1,4.9,No
2023/10/16,05:40,7.0,4.9,No
2023/10/16,05:50,7.3,5.1,No
2023/10/16,06:00,7.4,5.1,No
2023/10/16,06:10,7.2,5.0,No
2023/10/16,06:20,7.1,4.9,No
2023/10/16,06:30,7.1,5.0,No
2023/10/16,06:40,7.1,4.8,No
2023/10/16,06:50,7.1,4.9,No
2023/10/16,07:00,7.2,5.0,No
2023/10/16,07:10,7.2,4.9,No
2023/10/16,07:20,7.1,4.9,No
2023/10/16,07:30,7.1,5.0,No
2023/10/16,07:40,7.2,4.9,No
2023/10/16,07:50,7.0,5.2,No
2023/10/16,08:00,7.2,5.1,No
2023/10/16,08:10,7.2,5.1,No
2023/10/16,08:20,7.3,5.0,No
2023/10/16,08:30,7.2,5.0,No
2023/10/16,08:40,7.3,4.9,No
2023/10/16,08:50,7.2,4.9,No
2023/10/16,09:00,7.3,5.1,No
2023/10/16,09:10,7.0,4.9,No
2023/10/16,09:20,7.2,4.9,No
2023/10/16,09:30,7.2,4.9,No
2023/10/16,09:40,7.2,5.0,No
2023/10/16,09:50,7.1,5.0,No
2023/10/16,10:00,7.1,4.9,No
2023/10/16,10:10,7.1,5.0,No
2023/10/16,10:20,7.2,5.0,No
2023/10/16,10:30,7.1,4.9,No
2023/10/16,10:40,7.1,4.9,No
2023/10/16,10:50,7.2,5.0,No
2023/10/16,11:00,7.4,5.0,No
2023/10/16,11:10,7.2,4.9,No
2023/10/16,11:20,7.0,4.9,No
2023/10/16,11:30,7.3,4.9,No
2023/10/16,11:40,7.3,5.1,No
2023/10/16,11:50,7.1,5.0,No
2023/10/16,12:00,7.2,4.8,No
2023/10/16,12:10,7.3,4.9,No
2023/10/16,12:20,7.2,5.0,No
2023/10/16,12:30,7.1,5.0,No
2023/10/16,12:40,7.3,4.9,No
2023/10/16,12:50,7.1,5.0,No
2023/10/16,13:00,7.3,5.0,No
2023/10/16,13:10,7.1,5.0,Yes
2023/10/16,13:20,7.3,5.0,No
2023/10/16,13:30,7.2,5.0,No
2023/10/16,13:40,7.0,4.9,No
2023/10/16,13:50,7.2,5.0,No
2023/10/16,14:00,7.1,5.0,No
2023/10/16,14:10,7.3,5.1,No
2023/10/16,14:20,7.5,4.9,No
2023/10/16,14:30,7.2,5.0,No
2023/10/16,14:40,7.3,4.9,No
2023/10/16,14:50,7.1,4.9,No
2023/10/16,15:00,7.2,5.0,No
2023/10/16,15:10,7.0,5.0,No
2023/10/16,15:20,7.1,5.0,No
2023/10/16,15:30,7.1,5.0,No
2023/10/16,15:40,7.4,5.0,No
2023/10/16,15:50,7.1,4.9,No
2023/10/16,16:00,6.9,4.9,No
2023/10/16,16:10,7.2,4.9,No
2023/10/16,16:20,7.2,5.0,No
2023/10/16,16:30,7.2,4.9,No
2023/10/16,16:40,7.2,5.0,No
2023/10/16,16:50,7.3,4.9,No
2023/10/16,17:00,7.2,5.0,No
2023/10/16,17:10,7.2,4.9,No
2023/10/16,17:20,7.3,4.9,No
2023/10/16,17:30,7.2,5.0,No
2023/10/16,17:40,7.1,4.9,No
2023/10/16,17:50,7.2,5.0,No
2023/10/16,18:00,7.1,4.9,No
2023/10/16,18:10,7.3,4.9,No
2023/10/16,18:20,7.2,5.1,No
2023/10/16,18:30,7.2,4.9,No
2023/10/16,18:40,7.2,4.9,No
2023/10/16,18:50,7.2,5.0,No
2023/10/16,19:00,7.2,4.9,No
2023/10/16,19:10,7.2,5.0,No
2023/10/16,19:20,7.3,5.0,No
2023/10/16,19:30,7.3,4.9,No
2023/10/16,19:40,7.3,5.0,No
2023/10/16,19:50,7.2,4.9,No
2023/10/16,20:00,7.2,5.0,No
2023/10/16,20:10,7.1,4.9,No
2023/10/16,20:20,7.4,5.0,No
2023/10/16,20:30,7.2,5.0,No
2023/10/16,20:40,7.2,5.0,No
2023/10/16,20:50,7.3,4.9,No
2023/10/16,21:00,7.3,5.0,No
2023/10/16,21:10,7.3,4.9,No
2023/10/16,21:20,7.3,4.8,No
2023/10/16,21:30,7.5,5.0,No
2023/10/16,21:40,7.5,4.8,No
2023/10/16,21:50,7.4,4.9,No
2023/10/16,22:00,7.4,4.9,No
2023/10/16,22:10,7.5,5.0,No
2023/10/16,22:20,7.5,5.0,No
2023/10/16,22:30,7.6,5.1,No
2023/10/16,22:40,7.8,5.2,No
2023/10/16,22:50,7.6,5.3,Yes
2023/10/16,23:00,7.8,5.5,No
2023/10/16,23:10,8.0,5.5,No
2023/10/16,23:20,8.0,5.5,No
2023/10/16,23:30,8.2,5.6,No
2023/10/16,23:40,8.4,5.6,No
2023/10/16,23:50,8.5,5.6,No
